Tracking 35331 objects as of 14-Sep-2026
HD Live streaming from Space Station
objects crossing your sky now

STARLINK-34206

Track STARLINK-34206 now!
10-day predictions
STARLINK-34206 is classified as:


NORAD ID: 66098
Int'l Code: 2025-236N
Launch date: October 19, 2025
Source: United States (US)
Launch site: AIR FORCE WESTERN TEST RANGE (AFWTR)
Your satellite tracking list
Your tracking list is empty




NASA's NSSDC Master Catalog

Two Line Element Set (TLE):
1 66098U 25236N   26257.52349437  .00016736  00000-0  50520-3 0  9994
2 66098  53.1594 303.3749 0001220  85.4314 274.6828 15.34409715 51896
Source of the keplerian elements: AFSPC